Showing default

IRIDIUM 164, 43577

Orbit data source: Space-Track

IRIDIUM 164, 43577 is a payload satellite owned by Iridium (US) in LEO that was launched on Wed, 25 Jul 2018 UTC via an FALCON 9 launch vehicle from the Air Force Western Test Range (AFWTR). Payload-class satellites include a variety of spacecraft equipped with specific instruments for various scientific and technological missions. These include communications satellites like Starlink; space stations such as the ISS; scientific satellites like the Hubble; Earth observation satellites from companies like Planet Labs, Umbra, and HawkEye 360; GPS; miniature CubeSats for education and research; and military/defense satellites.

Loading next visibility...
Identifier
43577, 2018-061J
Orbit
LEO
Country
Flag of USUS
Related business
Manufacturer
NGIS SSG Gilbert
Mission
Operational Commercial Communications
Bus & Motor
ELITEBUS, Unknown motor
Mass
860 kg wet, 700 kg dry
Launch date (UTC)
2018-07-25 (7 years ago)
Launch vehicle
FALCON 9
Launch site
Air Force Western Test Range (AFWTR)
Object type
Payload
Rocket body
Debris
Shape & HBR
Trap Box + 2 Pan, 4.8 m
Radar Cross Section
10.154 m², Large (>1 m²)

Expand to show TLE details & history
Last TLE update: 22 hours ago

TLE from 22 hours ago
0 IRIDIUM 164
1 43577U 18061J   25304.60650939  .00000296  00000-0  98527-4 0  9996
2 43577  86.3979 152.3266 0002267  98.4107 261.7346 14.34219871380652
Epoch: 2025-10-31T14:33Z
TLE epoch observation values (Epoch: 2025-10-31T14:33:22.411Z)
Latitude
Longitude
-106.1653°
Altitude
780.945 km
Speed
7.463 km/s
True Right ascension
10h 09m 18s
True Declination
0° 00' 00"
Sunlit
Object was in daylight at epoch
Visualization orbit readout
Latitude
Unknown
Longitude
Unknown
Altitude
Unknown
Speed
Unknown
Apparent Right ascension
Unknown
Apparent Declination
Unknown
Sunlit
N/A
Visualization observer readout
Local Sidereal Time
08:18:40
Azimuth
Unknown
Elevation
Unknown
Doppler factor
Unknown
Orbital elements
Apogee altitude
776.246 km
Perigee altitude
773.003 km
Semi-major axis
7,152.762 km
Eccentricity
0.00023
Inclination
86.3979°
RAAN
152.3266°
Arg. of periapsis
98.4107°
True anomaly
261.70889°
Mean anomaly
261.7346°
Eccentric anomaly
261.72175°
Mean motion
3.58784 °/min
Orbital period
100.34 mins
BSTAR
0.000098527
Loading maneuver chart data...
Computing Atmospheric mass density...
Loading historical data...
Loading historical data...
Loading historical data...
Loading historical data...
Loading historical data...
Loading historical data...
Loading historical data...

Documentation

Showing up to 5 results
|